Location: Acheville
(50.3840°N, 2.8827°E)
Time: 11:08:07
(UTC+00:00)

USA 229 DEB - Pass Details

Date: 24 October 2021
Orbit: 944 x 1268 km, 63.4° (Epoch: 25 November)

Event Time Altitude Azimuth Distance (km) Brightness Sun altitude
Rises 19:15:01 0° 226° (SW) 3,645 6.9 -25.5°
Reaches altitude 10° 19:17:30 10° 227° (SW) 2,728 6.2 -25.9°
Maximum altitude 19:23:54 80° 315° (NW) 1,048 3.6 -26.9°
Enters shadow 19:26:54 37° 37° (NE) 1,597 4.4 -27.3°
